NKS2783 KSAN-KVCV

Flight info

Callsign NKS2783
Flight time 0h 28m
Altitude 16000
Route TANNR V186 PDZ/N0367F150 V442 APLES/N0362F140
Aircraft A319/M-SDE3FGHIRWY/LB1

Departure

Time 2026-05-05 22:58
Airport San Diego International Airport (KSAN)

Arrival

Time 2026-05-05 23:27
Airport Southern California Logistics Airport (KVCV)
Time Latitude Longitude Altitude Speed Heading
2026-05-05 22:58 32.80987 -117.29336 8843 ft 293 kts
2026-05-05 22:58 32.83053 -117.28952 10044 ft 300 kts
2026-05-05 22:59 32.85161 -117.28561 10734 ft 324 kts
2026-05-05 22:59 32.87410 -117.28133 11331 ft 345 kts
2026-05-05 22:59 32.89816 -117.27653 12219 ft 355 kts
2026-05-05 22:59 32.92271 -117.27148 13176 ft 362 kts
2026-05-05 23:00 32.97334 -117.26104 14956 ft 376 kts
2026-05-05 23:00 32.99931 -117.25579 15615 ft 381 kts
2026-05-05 23:00 33.02553 -117.25055 15867 ft 383 kts
2026-05-05 23:01 33.05205 -117.24535 15941 ft 393 kts
2026-05-05 23:01 33.07936 -117.24005 15966 ft 401 kts
2026-05-05 23:01 33.10658 -117.23470 15963 ft 402 kts
2026-05-05 23:01 33.13458 -117.22914 15965 ft 403 kts
2026-05-05 23:02 33.16221 -117.22366 15961 ft 403 kts
2026-05-05 23:02 33.18948 -117.21826 15962 ft 403 kts
2026-05-05 23:02 33.21753 -117.21270 15963 ft 403 kts
2026-05-05 23:02 33.24516 -117.20722 15964 ft 403 kts
2026-05-05 23:03 33.27282 -117.20173 15962 ft 403 kts
2026-05-05 23:03 33.30037 -117.19629 15967 ft 402 kts
2026-05-05 23:03 33.32763 -117.19095 15968 ft 403 kts
2026-05-05 23:03 33.35565 -117.18542 15968 ft 403 kts
2026-05-05 23:04 33.38292 -117.18002 15966 ft 403 kts
2026-05-05 23:04 33.41092 -117.17446 15957 ft 402 kts
2026-05-05 23:04 33.43860 -117.17057 15956 ft 398 kts 357°
2026-05-05 23:04 33.46559 -117.17272 15950 ft 391 kts 345°
2026-05-05 23:05 33.49163 -117.18082 15949 ft 384 kts 334°
2026-05-05 23:05 33.51557 -117.19424 15929 ft 376 kts 324°
2026-05-05 23:05 33.53716 -117.21164 15931 ft 374 kts 319°
2026-05-05 23:05 33.55855 -117.22950 15935 ft 375 kts 320°
2026-05-05 23:06 33.57998 -117.24731 15939 ft 375 kts 320°
2026-05-05 23:06 33.60142 -117.26508 15940 ft 375 kts 320°
2026-05-05 23:06 33.62283 -117.28283 15939 ft 375 kts 320°
2026-05-05 23:06 33.64431 -117.30065 15927 ft 375 kts 320°
2026-05-05 23:07 33.66567 -117.31846 15925 ft 375 kts 320°
2026-05-05 23:07 33.68710 -117.33638 15923 ft 375 kts 320°
2026-05-05 23:07 33.70849 -117.35424 15923 ft 375 kts 320°
2026-05-05 23:07 33.72991 -117.37213 15926 ft 375 kts 320°
2026-05-05 23:08 33.75130 -117.38998 15926 ft 375 kts 320°
2026-05-05 23:08 33.77261 -117.40778 15917 ft 374 kts 320°
2026-05-05 23:08 33.78451 -117.41773 15895 ft 374 kts 323°
2026-05-05 23:08 33.80610 -117.43579 15931 ft 374 kts 320°
2026-05-05 23:09 33.82747 -117.45368 15935 ft 374 kts 320°
2026-05-05 23:09 33.84881 -117.47158 15937 ft 374 kts 320°
2026-05-05 23:09 33.87019 -117.48952 15929 ft 375 kts 320°
2026-05-05 23:09 33.89227 -117.50632 15928 ft 379 kts 328°
2026-05-05 23:10 33.91677 -117.51796 15842 ft 376 kts 340°
2026-05-05 23:10 33.94241 -117.52324 15589 ft 374 kts 353°
2026-05-05 23:10 33.96836 -117.52194 15348 ft 375 kts
2026-05-05 23:10 33.99414 -117.51756 15107 ft 373 kts
2026-05-05 23:11 34.01984 -117.51337 14874 ft 371 kts
2026-05-05 23:11 34.04538 -117.50932 14637 ft 369 kts
2026-05-05 23:11 34.07078 -117.50533 14400 ft 368 kts
2026-05-05 23:11 34.09608 -117.50136 14165 ft 366 kts
2026-05-05 23:12 34.12132 -117.49737 13929 ft 365 kts
2026-05-05 23:12 34.14641 -117.49338 13676 ft 363 kts
2026-05-05 23:12 34.17142 -117.48935 13408 ft 362 kts
2026-05-05 23:12 34.19606 -117.48535 13133 ft 360 kts
2026-05-05 23:13 34.22081 -117.48132 12879 ft 358 kts
2026-05-05 23:13 34.24549 -117.47731 12618 ft 357 kts
2026-05-05 23:13 34.27001 -117.47334 12358 ft 355 kts
2026-05-05 23:13 34.29445 -117.46941 12097 ft 353 kts
2026-05-05 23:14 34.31881 -117.46548 11832 ft 352 kts
2026-05-05 23:14 34.34299 -117.46157 11576 ft 349 kts
2026-05-05 23:14 34.36666 -117.45773 11326 ft 348 kts
2026-05-05 23:14 34.39056 -117.45384 11082 ft 345 kts
2026-05-05 23:15 34.41431 -117.44998 10842 ft 343 kts
2026-05-05 23:15 34.43790 -117.44613 10599 ft 341 kts
2026-05-05 23:15 34.46126 -117.44233 10362 ft 338 kts
2026-05-05 23:15 34.48461 -117.43855 10139 ft 337 kts
2026-05-05 23:16 34.50767 -117.43479 9919 ft 328 kts
2026-05-05 23:16 34.52972 -117.43119 9789 ft 311 kts
2026-05-05 23:16 34.55070 -117.42774 9659 ft 299 kts
2026-05-05 23:16 34.57116 -117.42436 9526 ft 295 kts
2026-05-05 23:17 34.59132 -117.42104 9394 ft 287 kts
2026-05-05 23:17 34.61088 -117.41773 8937 ft 287 kts
2026-05-05 23:17 34.63054 -117.41447 8693 ft 280 kts
2026-05-05 23:17 34.64951 -117.41139 8563 ft 270 kts
2026-05-05 23:18 34.66785 -117.40841 8435 ft 262 kts
2026-05-05 23:18 34.68563 -117.40554 8309 ft 254 kts
2026-05-05 23:18 34.70278 -117.40278 8179 ft 243 kts
2026-05-05 23:18 34.71392 -117.40097 8073 ft 235 kts
2026-05-05 23:19 34.72997 -117.39835 7785 ft 231 kts
2026-05-05 23:19 34.74559 -117.39582 7455 ft 229 kts
2026-05-05 23:19 34.76123 -117.39326 7160 ft 223 kts
2026-05-05 23:19 34.77636 -117.39076 6804 ft 216 kts
2026-05-05 23:20 34.79093 -117.38808 6529 ft 208 kts
2026-05-05 23:20 34.80332 -117.38016 6396 ft 199 kts 38°
2026-05-05 23:20 34.81091 -117.36666 6246 ft 190 kts 70°
2026-05-05 23:20 34.81249 -117.35137 6107 ft 177 kts 100°
2026-05-05 23:21 34.80878 -117.33782 5975 ft 162 kts 128°
2026-05-05 23:21 34.80172 -117.32814 5852 ft 146 kts 152°
2026-05-05 23:21 34.79320 -117.32266 5754 ft 134 kts 171°
2026-05-05 23:21 34.78434 -117.32103 5662 ft 125 kts 189°
2026-05-05 23:22 34.77593 -117.32277 5569 ft 122 kts 205°
2026-05-05 23:22 34.76835 -117.32745 5483 ft 124 kts 218°
2026-05-05 23:22 34.76098 -117.33320 5392 ft 127 kts 216°
2026-05-05 23:22 34.75358 -117.33888 5312 ft 125 kts 217°
2026-05-05 23:23 34.74618 -117.34455 5211 ft 126 kts 215°
2026-05-05 23:23 34.73876 -117.35024 5111 ft 125 kts 215°
2026-05-05 23:23 34.73137 -117.35591 5021 ft 126 kts 216°
2026-05-05 23:23 34.72398 -117.36160 4925 ft 125 kts 216°
2026-05-05 23:24 34.71661 -117.36728 4825 ft 126 kts 216°
2026-05-05 23:24 34.70923 -117.37294 4730 ft 125 kts 216°
2026-05-05 23:24 34.70188 -117.37861 4636 ft 127 kts 215°
2026-05-05 23:24 34.69450 -117.38430 4537 ft 125 kts 214°
2026-05-05 23:25 34.68617 -117.38754 4420 ft 132 kts 188°
2026-05-05 23:25 34.67723 -117.38738 4222 ft 124 kts 186°
2026-05-05 23:25 34.66860 -117.38726 4027 ft 123 kts 185°
2026-05-05 23:25 34.66009 -117.38707 3811 ft 123 kts 182°
2026-05-05 23:26 34.65167 -117.38643 3615 ft 121 kts 181°
2026-05-05 23:26 34.64315 -117.38650 3480 ft 125 kts 184°
2026-05-05 23:26 34.63450 -117.38676 3289 ft 126 kts 182°
2026-05-05 23:26 34.62586 -117.38671 3035 ft 122 kts 184°
2026-05-05 23:27 34.61741 -117.38675 2873 ft 120 kts 182°
2026-05-05 23:27 34.61075 -117.38676 2869 ft 59 kts 178°
2026-05-05 23:27 34.60786 -117.38668 2865 ft 42 kts 181°
2026-05-05 23:27 34.60457 -117.38661 2858 ft 50 kts 180°
2026-05-05 23:28 34.60093 -117.38661 2865 ft 55 kts 179°
2026-05-05 23:28 34.59728 -117.38657 2871 ft 49 kts 179°
2026-05-05 23:28 34.59526 -117.38644 2869 ft 21 kts 149°
2026-05-05 23:28 34.59490 -117.38489 2868 ft 17 kts 88°
2026-05-05 23:29 34.59478 -117.38392 2868 ft 11 kts 143°
2026-05-05 23:29 34.59409 -117.38307 2866 ft 18 kts 133°
2026-05-05 23:29 34.59318 -117.38187 2867 ft 12 kts 114°
2026-05-05 23:29 34.59346 -117.38124 2867 ft 6 kts 52°
2026-05-05 23:30 34.59349 -117.38120 2867 ft 0 kts 52°
2026-05-05 23:31 34.59349 -117.38121 2867 ft 0 kts 52°
2026-05-05 23:32 34.59348 -117.38121 2867 ft 0 kts 52°